Location: Muchchint?la
(16.9106°N, 80.2664°E)
Time: 05:34:12
(UTC+00:00)

Daily predictions for brighter satellites

Satellite Brightness Start Highest point End
(mag) Time Altitude Azimuth Time Altitude Azimuth Time Altitude Azimuth
COSMO-SKYMED 1 3.1 00:01:46 10° SSE 00:06:03 67° ENE 00:10:20 10° N
GPS 2-15 Rocket1 3.3 00:01:55 10° WSW 00:06:48 78° SSE 00:11:39 10° E
Cosmos 2369 Rocket 3.7 00:02:17 10° N 00:07:34 43° ENE 00:12:48 10° SE
IUS-14 SRM-1 3.3 00:00:53 10° WNW 00:08:28 70° NNE 00:11:09 10° ESE
FALCON 9 R/B 4.0 00:20:14 10° WSW 00:57:07 79° NNW 01:03:43 10° ENE
